[[{"header":{"parameterUnit":"m.s-1","parameterCategory":2,"la1":30.2991,"la2":30.254,"lo1":-89.0895,"lo2":-89.0444,"dy":0.0017,"dx":0.0017,"nx":28,"ny":28,"refTime":"2024-03-25T03:00:00:Z","depth":"0","parameterNumber":2,"parameterNumberName":"U-component_of_CURRENTS"},"data":[0,0,0,0,0,0,0,0,0,0,0,0,0,0,0,0,0,0,0,0,0,0,0,0,0,0,0,0,0,0,0,0,0,0,0,0,0,0,0,0,0,0,0,0,0,0,0,0,0,0,0,0,0,0,0,0,0,0,0.3974,0.3976,0,0.4076,0.4077,0.4078,0.4144,0.4144,0.4145,0.4145,0.4227,0.4228,0.423,0,0,0,0,0,0,0,0,0,0,0,0,0,0.3848,0.385,0.3974,0.3976,0.3977,0.4076,0.4077,0.4079,0.4143,0.4144,0.4145,0.4146,0.4226,0.4228,0.423,0,0,0,0,0,0,0,0,0,0,0,0,0,0.3919,0.385,0.3974,0.4023,0.4029,0.4076,0.4077,0.4079,0.4143,0.4144,0.4145,0.4146,0.4225,0.4228,0.423,0.4228,0,0,0.4238,0.4239,0,0,0,0,0,0,0,0,0.3915,0.3924,0.4014,0.402,0.4026,0.41,0.4063,0.4128,0.4143,0.4097,0.4145,0.4146,0.4183,0.4189,0.4204,0.4231,0.4235,0.4238,0.4239,0.424,0.4241,0,0,0,0,0,0,0,0.391,0.392,0.4013,0.4016,0.4023,0.4044,0.4055,0.4076,0.4132,0.4102,0.4107,0.4122,0.4186,0.4201,0.4206,0.4236,0.4238,0.424,0.4241,0.4242,0.4268,0.4268,0,0,0,0,0,0,0.3901,0.3915,0.4009,0.4016,0.3974,0.4046,0.4058,0.4074,0.4132,0.4143,0.4121,0.4124,0.4196,0.4203,0.4209,0.4231,0.424,0.4243,0.4244,0.4269,0.4268,0.4267,0,0,0,0,0,0,0.3897,0.3908,0.4005,0.3969,0.3984,0.4047,0.4064,0.4075,0.4094,0.4148,0.4158,0.4129,0.4197,0.4206,0.4226,0.4233,0.4244,0.4246,0.427,0.4269,0.4268,0.426,0,0,0,0,0,0,0.3893,0.3906,0.3906,0.3969,0.3985,0.4039,0.4064,0.4077,0.4103,0.4108,0.4158,0.4166,0.4199,0.4222,0.4228,0.4237,0.4248,0.4271,0.427,0.4268,0.4261,0.4259,0.4257,0,0,0,0,0,0.3888,0.3884,0.3905,0.3917,0.3986,0.4039,0.4049,0.4096,0.4102,0.4114,0.4139,0.4165,0.4217,0.4223,0.4231,0.4241,0.4272,0.427,0.4268,0.4262,0.4259,0.4257,0,0,0,0,0,0,0.3821,0.3893,0.3917,0.3933,0.3985,0.4051,0.4059,0.4089,0.4118,0.4117,0.4159,0.4169,0.419,0.4205,0.4211,0.4239,0.4247,0.4247,0.424,0.4237,0.4235,0.4227,0.425,0,0,0,0,0,0.3807,0.3827,0.39,0.391,0.3934,0.3992,0.4015,0.4053,0.4091,0.4106,0.414,0.4165,0.4187,0.4204,0.4227,0.4242,0.4254,0.4249,0.4246,0.4245,0.4241,0.4252,0.4251,0.4262,0.4262,0.4262,0,0,0.378,0.3823,0.3832,0.3897,0.3935,0.3974,0.4008,0.4044,0.4073,0.4107,0.4137,0.4159,0.4187,0.4211,0.4221,0.4227,0.4249,0.4242,0.4241,0.4238,0.425,0.4249,0.4249,0.4261,0.4261,0.4261,0,0,0.3749,0.3777,0.3793,0.384,0.3907,0.3947,0.3957,0.4026,0.4051,0.4085,0.4112,0.4132,0.4172,0.4198,0.4213,0.4204,0.4235,0.4211,0.4201,0.4212,0.4212,0.4212,0.4237,0.4239,0.4212,0.4212,0.4212,0,0.3715,0.3755,0.3802,0.3839,0.3877,0.3933,0.3967,0.3998,0.4064,0.4083,0.4092,0.4142,0.4166,0.4193,0.4193,0.4202,0.4216,0.4215,0.4211,0.4211,0.4211,0.4237,0.4239,0.4212,0.4212,0.4212,0.4212,0,0.3718,0.3748,0.3757,0.3827,0.3866,0.3902,0.3967,0.3998,0.4028,0.4066,0.4098,0.4125,0.416,0.4166,0.4181,0.4193,0.4207,0.4207,0.4222,0.421,0.4238,0.424,0.4211,0.4211,0.4211,0.4211,0,0,0.3652,0.3743,0.3747,0.3785,0.387,0.3905,0.3945,0.4007,0.4036,0.4072,0.4104,0.4129,0.4145,0.416,0.4178,0.4183,0.4199,0.4193,0.4194,0.4227,0.4236,0.4354,0.4369,0.4202,0.4202,0.4202,0.4261,0,0.3645,0.3705,0.3755,0.3805,0.3847,0.3913,0.3951,0.4008,0.4052,0.4092,0.411,0.4144,0.4142,0.4163,0.4164,0.4196,0.4204,0.4184,0.4237,0.4238,0.4351,0.4375,0.4459,0.4528,0.4264,0.4264,0.4265,0,0.3642,0.369,0.3738,0.3822,0.3845,0.3878,0.3959,0.4004,0.4067,0.4098,0.4126,0.4152,0.4173,0.4165,0.42,0.419,0.4208,0.4221,0.4224,0.4338,0.4362,0.4495,0.4543,0.42,0.4269,0.4269,0.4268,0,0.3595,0.3675,0.371,0.3742,0.3842,0.3871,0.3924,0.4002,0.4048,0.4104,0.414,0.4162,0.4185,0.42,0.4246,0.4223,0.4287,0.4262,0.4381,0.439,0.4474,0.4491,0.4207,0.4275,0.4275,0.4274,0.4274,0,0.358,0.3608,0.369,0.3717,0.3766,0.3845,0.3899,0.396,0.4038,0.4097,0.4135,0.4188,0.4192,0.4242,0.426,0.4356,0.4305,0.4393,0.4418,0.4476,0.4492,0.421,0.4101,0.4277,0.4276,0.4276,0.4275,0,0.3532,0.3577,0.363,0.3723,0.3747,0.3788,0.3891,0.3941,0.4016,0.4096,0.4117,0.4202,0.4299,0.4332,0.4376,0.44,0.4348,0.4502,0.4586,0.4621,0.4429,0.4324,0.4107,0.3994,0.4644,0.4648,0.4651,0,0.3532,0.3552,0.3624,0.3658,0.3699,0.3766,0.382,0.3913,0.3981,0.4123,0.4167,0.4282,0.4391,0.4526,0.4617,0.471,0.445,0.4802,0.4774,0.4436,0.4333,0.4118,0.4019,0.4875,0.4879,0.4883,0.4886,0,0.3575,0.3577,0.3626,0.369,0.374,0.3768,0.386,0.3896,0.4023,0.4108,0.4266,0.4368,0.4567,0.4723,0.4852,0.4919,0.4585,0.4883,0.4494,0.4473,0.4259,0.4159,0.4799,0.4918,0.4915,0.4913,0.4911,0.491,0.3644,0.3673,0.375,0.3773,0.3804,0.3817,0.3821,0.3926,0.403,0.4138,0.4306,0.4426,0.4666,0.4908,0.4941,0.4892,0.4792,0.4778,0.4677,0.4478,0.4361,0.5094,0.5266,0.5264,0.5263,0.5262,0.5262,0,0.3826,0.3829,0.3854,0.3891,0.3866,0.3863,0.3888,0.3858,0.395,0.4094,0.4247,0.4437,0.4607,0.4696,0.4827,0.4678,0.4475,0.4452,0.4084,0.3998,0.4623,0.4617,0.4703,0.4703,0.4704,0.4704,0.4704,0.4705,0.3958,0.4017,0.397,0.3964,0.3926,0.3816,0.378,0.3748,0.3801,0.3838,0.3905,0.4056,0.4167,0.4284,0.4181,0.4141,0.3683,0.3691,0.3395,0.373,0.3745,0.3759,0.371,0.3606,0.3605,0.2726,0.2718,0.2713]},{"header":{"parameterUnit":"m.s-1","parameterCategory":2,"la1":30.2991,"la2":30.254,"lo1":-89.0895,"lo2":-89.0444,"dy":0.0017,"dx":0.0017,"nx":28,"ny":28,"refTime":"2024-03-25T03:00:00:Z","depth":"0","parameterNumber":3,"parameterNumberName":"V-component_of_CURRENTS"},"data":[0,0,0,0,0,0,0,0,0,0,0,0,0,0,0,0,0,0,0,0,0,0,0,0,0,0,0,0,0,0,0,0,0,0,0,0,0,0,0,0,0,0,0,0,0,0,0,0,0,0,0,0,0,0,0,0,0,0,-0.1484,-0.1486,0,-0.1625,-0.1627,-0.1629,-0.1691,-0.1691,-0.1691,-0.1691,-0.1872,-0.1877,-0.1882,0,0,0,0,0,0,0,0,0,0,0,0,0,-0.1331,-0.1334,-0.1484,-0.1486,-0.1488,-0.1625,-0.1627,-0.1629,-0.1691,-0.1691,-0.1691,-0.169,-0.187,-0.1876,-0.1882,0,0,0,0,0,0,0,0,0,0,0,0,0,-0.1428,-0.1334,-0.1484,-0.1535,-0.1541,-0.1625,-0.1627,-0.1629,-0.1691,-0.1691,-0.1691,-0.169,-0.1868,-0.1876,-0.1883,-0.1936,0,0,-0.1906,-0.1909,0,0,0,0,0,0,0,0,-0.1422,-0.1433,-0.1526,-0.1532,-0.1538,-0.164,-0.164,-0.1734,-0.1691,-0.1635,-0.1691,-0.169,-0.1798,-0.1811,-0.1839,-0.1945,-0.1952,-0.1907,-0.1911,-0.1915,-0.1917,0,0,0,0,0,0,0,-0.1415,-0.1428,-0.1541,-0.1528,-0.1535,-0.1572,-0.1585,-0.1658,-0.1718,-0.164,-0.1644,-0.166,-0.1802,-0.1831,-0.1843,-0.1955,-0.1907,-0.1913,-0.1918,-0.1921,-0.2094,-0.2094,0,0,0,0,0,0,-0.1395,-0.1422,-0.1536,-0.1545,-0.1478,-0.1575,-0.1589,-0.1608,-0.1716,-0.1732,-0.166,-0.1662,-0.1818,-0.1835,-0.185,-0.1903,-0.1914,-0.1922,-0.1926,-0.2094,-0.2094,-0.2094,0,0,0,0,0,0,-0.1391,-0.1404,-0.153,-0.1486,-0.1504,-0.1577,-0.1598,-0.1611,-0.1641,-0.1731,-0.1747,-0.1676,-0.1819,-0.1839,-0.1911,-0.1911,-0.1925,-0.1932,-0.2094,-0.2094,-0.2094,-0.202,0,0,0,0,0,0,-0.1386,-0.1402,-0.1406,-0.1484,-0.1506,-0.1575,-0.1599,-0.1614,-0.165,-0.1655,-0.1751,-0.1767,-0.182,-0.1899,-0.1918,-0.1922,-0.1938,-0.2094,-0.2094,-0.2094,-0.2023,-0.2018,-0.2014,0,0,0,0,0,-0.138,-0.1386,-0.1406,-0.1419,-0.1511,-0.1575,-0.159,-0.1641,-0.1651,-0.1666,-0.1726,-0.1764,-0.1913,-0.1906,-0.1928,-0.1934,-0.2094,-0.2094,-0.2094,-0.2025,-0.2019,-0.2014,0,0,0,0,0,0,-0.133,-0.1396,-0.1418,-0.1446,-0.1503,-0.1585,-0.1602,-0.1638,-0.1698,-0.1699,-0.1778,-0.1799,-0.1857,-0.1908,-0.1898,-0.1982,-0.2005,-0.201,-0.1945,-0.194,-0.1936,-0.1886,-0.1944,0,0,0,0,0,-0.1319,-0.1334,-0.1411,-0.1432,-0.1456,-0.1527,-0.1558,-0.1596,-0.166,-0.1685,-0.1752,-0.1818,-0.1877,-0.1917,-0.1978,-0.2036,-0.2042,-0.2051,-0.2046,-0.2042,-0.2016,-0.2039,-0.2034,-0.2095,-0.2095,-0.2095,0,0,-0.1306,-0.1342,-0.1353,-0.1421,-0.1466,-0.1494,-0.1545,-0.1588,-0.1611,-0.1697,-0.1745,-0.1809,-0.1888,-0.1944,-0.1974,-0.1987,-0.2024,-0.2042,-0.2038,-0.2014,-0.2039,-0.2033,-0.2027,-0.2095,-0.2095,-0.2095,0,0,-0.1277,-0.1319,-0.1317,-0.1359,-0.142,-0.1468,-0.1477,-0.1559,-0.1592,-0.1654,-0.171,-0.177,-0.1873,-0.1923,-0.1962,-0.1973,-0.1997,-0.1995,-0.1941,-0.1964,-0.1958,-0.1954,-0.1928,-0.1922,-0.1996,-0.1996,-0.1996,0,-0.1254,-0.1267,-0.1329,-0.134,-0.1361,-0.1449,-0.1453,-0.1509,-0.1602,-0.1619,-0.1655,-0.1778,-0.1857,-0.1906,-0.1911,-0.1962,-0.1958,-0.1955,-0.1955,-0.1951,-0.1947,-0.1923,-0.1917,-0.1992,-0.1993,-0.1993,-0.1994,0,-0.1229,-0.1237,-0.1241,-0.1276,-0.1312,-0.1333,-0.141,-0.1448,-0.1499,-0.1549,-0.1609,-0.1715,-0.1778,-0.1822,-0.1876,-0.1892,-0.189,-0.1942,-0.1961,-0.1936,-0.1912,-0.1907,-0.1987,-0.1989,-0.199,-0.1991,0,0,-0.116,-0.121,-0.1204,-0.1196,-0.1275,-0.1291,-0.1333,-0.1382,-0.1385,-0.1485,-0.1486,-0.1613,-0.1658,-0.1703,-0.1783,-0.1817,-0.18,-0.186,-0.1863,-0.1817,-0.1803,-0.1723,-0.1709,-0.1851,-0.185,-0.185,-0.1787,0,-0.111,-0.1093,-0.1144,-0.1124,-0.1118,-0.1201,-0.1223,-0.1279,-0.1343,-0.1372,-0.1474,-0.1518,-0.1618,-0.1643,-0.1692,-0.1777,-0.1786,-0.1809,-0.1848,-0.1847,-0.1766,-0.1702,-0.1513,-0.1434,-0.1782,-0.1781,-0.1781,0,-0.1044,-0.1042,-0.1007,-0.102,-0.1025,-0.103,-0.1055,-0.1092,-0.1168,-0.1213,-0.1278,-0.1365,-0.1434,-0.1522,-0.1622,-0.1628,-0.1693,-0.1757,-0.1758,-0.17,-0.1757,-0.1522,-0.1412,-0.1539,-0.1773,-0.1774,-0.1774,0,-0.0915,-0.0931,-0.0887,-0.0895,-0.0939,-0.0927,-0.0955,-0.1024,-0.103,-0.11,-0.1098,-0.1217,-0.1251,-0.1365,-0.1508,-0.1562,-0.1587,-0.1688,-0.1664,-0.1658,-0.1511,-0.1493,-0.151,-0.1725,-0.1725,-0.1725,-0.1725,0,-0.0813,-0.0769,-0.0815,-0.0782,-0.0723,-0.0804,-0.0756,-0.0805,-0.0856,-0.0819,-0.0989,-0.0976,-0.1214,-0.1278,-0.1424,-0.149,-0.1518,-0.1611,-0.163,-0.1478,-0.1459,-0.1577,-0.1712,-0.1723,-0.1723,-0.1724,-0.1724,0,-0.064,-0.0685,-0.0618,-0.0644,-0.0647,-0.059,-0.0611,-0.0579,-0.0656,-0.0609,-0.0619,-0.0771,-0.0851,-0.1051,-0.122,-0.1347,-0.1478,-0.1468,-0.1245,-0.1239,-0.1362,-0.15,-0.1513,-0.1579,-0.1432,-0.143,-0.1428,0,-0.0544,-0.0491,-0.0474,-0.0427,-0.0423,-0.0383,-0.0352,-0.0444,-0.0414,-0.0461,-0.0406,-0.0502,-0.0518,-0.0723,-0.0944,-0.112,-0.1333,-0.1102,-0.1194,-0.1295,-0.1466,-0.156,-0.1625,-0.0961,-0.0955,-0.0951,-0.0947,0,-0.0327,-0.0315,-0.0256,-0.0178,-0.0126,-0.0085,-0.0056,-0.0009,-0.0088,-0.0042,0.0017,-0.0005,-0.0216,-0.0301,-0.0585,-0.0755,-0.1139,-0.1013,-0.1179,-0.1125,-0.1166,-0.126,-0.1069,-0.0905,-0.0909,-0.0912,-0.0914,-0.0916,-0.0123,-0.0029,0.0042,0.013,0.0169,0.0241,0.0331,0.0354,0.0453,0.0574,0.0473,0.0612,0.0347,-0.0011,-0.0331,-0.0707,-0.0864,-0.0804,-0.0965,-0.1053,-0.1106,-0.0796,-0.0635,-0.0638,-0.064,-0.0642,-0.0643,0,0.018,0.0251,0.0337,0.045,0.0546,0.0475,0.0563,0.0676,0.0869,0.1003,0.1126,0.1263,0.0919,0.0429,-0.0145,-0.0538,-0.0757,-0.0777,-0.0879,-0.096,-0.0692,-0.066,-0.0421,-0.0421,-0.042,-0.042,-0.042,-0.042,0.0354,0.0547,0.057,0.0799,0.0846,0.0991,0.1065,0.1205,0.1343,0.1668,0.1899,0.2,0.1695,0.0492,-0.0382,-0.0644,-0.0984,-0.0968,-0.1268,-0.1095,-0.1111,-0.1126,-0.1126,-0.0988,-0.0989,-0.1385,-0.139,-0.1393]}],[{"header":{"parameterUnit":"m.s-1","parameterCategory":2,"la1":30.2991,"la2":30.254,"lo1":-89.0895,"lo2":-89.0444,"dy":0.0017,"dx":0.0017,"nx":28,"ny":28,"refTime":"2024-03-25T03:00:00:Z","depth":"2","parameterNumber":2,"parameterNumberName":"U-component_of_CURRENTS"},"data":[0,0,0,0,0,0,0,0,0,0,0,0,0,0,0,0,0,0,0,0,0,0,0,0,0,0,0,0,0,0,0,0,0,0,0,0,0,0,0,0,0,0,0,0,0,0,0,0,0,0,0,0,0,0,0,0,0,0,0.2375,0.2377,0,0.2476,0.2477,0.2478,0.2572,0.2573,0.2575,0.2576,0.2677,0.2678,0.268,0,0,0,0,0,0,0,0,0,0,0,0,0,0.2208,0.2211,0.2375,0.2377,0.2378,0.2476,0.2477,0.2478,0.2572,0.2573,0.2575,0.2577,0.2677,0.2678,0.268,0,0,0,0,0,0,0,0,0,0,0,0,0,0.229,0.2212,0.2375,0.2438,0.2445,0.2476,0.2477,0.2479,0.2571,0.2573,0.2576,0.2577,0.2676,0.2678,0.268,0.2653,0,0,0.2687,0.2688,0,0,0,0,0,0,0,0,0.2285,0.2296,0.2427,0.2434,0.2442,0.2516,0.2456,0.2538,0.2571,0.2521,0.2576,0.2578,0.2623,0.2629,0.2641,0.2657,0.2662,0.2687,0.2688,0.2689,0.269,0,0,0,0,0,0,0,0.228,0.2292,0.2413,0.2429,0.2437,0.2443,0.2457,0.2471,0.2558,0.2526,0.2533,0.2547,0.2627,0.2639,0.2644,0.2663,0.2687,0.2689,0.269,0.2691,0.292,0.2924,0,0,0,0,0,0,0.2273,0.2287,0.241,0.2416,0.2369,0.2444,0.246,0.2488,0.2558,0.2571,0.2545,0.2551,0.2634,0.2641,0.2648,0.2806,0.2689,0.2691,0.2692,0.2915,0.2921,0.2926,0,0,0,0,0,0,0.2269,0.2283,0.2406,0.2354,0.2371,0.2446,0.2476,0.2489,0.2533,0.2573,0.2587,0.258,0.2636,0.2645,0.2754,0.2804,0.2692,0.2694,0.2909,0.2917,0.2924,0.3002,0,0,0,0,0,0,0.2264,0.2281,0.2308,0.2355,0.2374,0.2448,0.2475,0.249,0.2537,0.2547,0.2606,0.2616,0.2638,0.2752,0.2757,0.2805,0.2696,0.2903,0.2913,0.2921,0.2994,0.3011,0.3026,0,0,0,0,0,0.2258,0.2285,0.2308,0.2324,0.2405,0.2449,0.2459,0.2516,0.2537,0.2561,0.2652,0.2616,0.2812,0.2758,0.2762,0.2811,0.2899,0.291,0.2921,0.2986,0.3008,0.3026,0,0,0,0,0,0,0.2235,0.2299,0.2325,0.2375,0.2419,0.2466,0.2498,0.2524,0.2606,0.2638,0.2669,0.2688,0.2784,0.2807,0.2745,0.2914,0.2851,0.2863,0.29,0.292,0.2936,0.2972,0.2697,0,0,0,0,0,0.2237,0.2278,0.2331,0.2375,0.2397,0.2447,0.2475,0.2518,0.2588,0.2626,0.2658,0.2738,0.2824,0.2882,0.2923,0.3018,0.3018,0.3062,0.3078,0.3092,0.3132,0.316,0.318,0.2962,0.2962,0.2961,0,0,0.2237,0.2283,0.2304,0.2372,0.2412,0.2466,0.247,0.253,0.2593,0.2622,0.2713,0.2763,0.2856,0.297,0.3018,0.3006,0.3161,0.3105,0.3116,0.315,0.3173,0.3193,0.3211,0.2969,0.2968,0.2966,0,0,0.2258,0.2302,0.2343,0.2383,0.2455,0.2494,0.2514,0.2568,0.2616,0.2734,0.2766,0.2879,0.2984,0.3067,0.3133,0.3269,0.3216,0.3271,0.3413,0.3438,0.3455,0.3469,0.3504,0.3521,0.3314,0.3314,0.3314,0,0.2257,0.2327,0.2359,0.2413,0.2454,0.2509,0.2563,0.2623,0.2709,0.2771,0.2791,0.2995,0.305,0.322,0.3308,0.3301,0.3309,0.3317,0.3453,0.3468,0.3481,0.3513,0.3531,0.3319,0.3319,0.3318,0.3318,0,0.2304,0.2372,0.2399,0.2493,0.2535,0.2593,0.267,0.2732,0.281,0.2886,0.3043,0.3143,0.3276,0.3316,0.3387,0.3521,0.3491,0.3429,0.3384,0.3507,0.3534,0.3551,0.3326,0.3325,0.3323,0.3322,0,0,0.2279,0.2406,0.2421,0.2485,0.2583,0.263,0.2738,0.2861,0.2957,0.3077,0.3198,0.3407,0.3445,0.3526,0.3567,0.3658,0.3777,0.3628,0.3627,0.3632,0.3847,0.3682,0.3684,0.3722,0.3726,0.3728,0.3827,0,0.2314,0.2416,0.2473,0.2594,0.2655,0.2738,0.2834,0.2958,0.3071,0.3191,0.3343,0.3477,0.3524,0.3604,0.3697,0.3751,0.3827,0.3758,0.3758,0.3759,0.3569,0.3699,0.3451,0.3505,0.3843,0.3846,0.3848,0,0.2352,0.2418,0.252,0.2667,0.2701,0.2792,0.2953,0.3045,0.3231,0.3325,0.3485,0.3557,0.3758,0.3731,0.3916,0.3868,0.3888,0.3921,0.3922,0.3757,0.3625,0.3442,0.3522,0.3876,0.3873,0.3871,0.387,0,0.2321,0.2464,0.2548,0.2593,0.2754,0.2843,0.2943,0.3112,0.3216,0.3402,0.3504,0.3683,0.3809,0.3872,0.399,0.3954,0.414,0.4057,0.3923,0.391,0.3698,0.366,0.4145,0.4145,0.4144,0.4144,0.4144,0,0.2335,0.2414,0.2562,0.2613,0.2739,0.2855,0.3005,0.3126,0.3311,0.3441,0.3568,0.3675,0.3856,0.3971,0.4014,0.4049,0.4146,0.3988,0.3936,0.372,0.3685,0.3998,0.3979,0.4148,0.4147,0.4146,0.4146,0,0.2302,0.2387,0.2517,0.269,0.2735,0.2843,0.3035,0.3146,0.3322,0.3479,0.3549,0.375,0.3886,0.4014,0.4144,0.4084,0.4113,0.4075,0.3826,0.3741,0.386,0.3845,0.3937,0.3932,0.3928,0.3924,0.3922,0,0.2306,0.2368,0.2537,0.2597,0.2691,0.2836,0.2923,0.3132,0.3251,0.3493,0.3568,0.3761,0.3826,0.3959,0.3934,0.395,0.4052,0.3681,0.3552,0.3904,0.3845,0.3837,0.3828,0.3324,0.3317,0.3311,0.3306,0,0.2331,0.2399,0.2481,0.2577,0.2694,0.28,0.2961,0.3027,0.3257,0.3359,0.3475,0.3536,0.3673,0.3572,0.3619,0.3581,0.3657,0.3548,0.4009,0.3386,0.3326,0.3267,0.328,0.3251,0.3257,0.3261,0.3264,0.3266,0.2372,0.2396,0.2489,0.258,0.2704,0.278,0.2776,0.2908,0.3008,0.309,0.3229,0.3198,0.3274,0.3162,0.311,0.3099,0.3306,0.3175,0.3195,0.3222,0.3104,0.3036,0.2888,0.2891,0.2894,0.2897,0.2899,0,0.2388,0.2386,0.2469,0.257,0.2647,0.2749,0.2804,0.2739,0.2718,0.2798,0.2805,0.2567,0.2536,0.266,0.2549,0.2532,0.2532,0.2456,0.2455,0.2512,0.2561,0.241,0.2011,0.2007,0.2004,0.2001,0,0,0.2377,0.2393,0.2394,0.2489,0.2572,0.2565,0.254,0.2432,0.2408,0.2252,0.22,0.2308,0.25,0.215,0.2161,0.2078,0.2265,0.2007,0.2727,0.2778,0.2823,0.2994,0.2826,0,0,0,0,0]},{"header":{"parameterUnit":"m.s-1","parameterCategory":2,"la1":30.2991,"la2":30.254,"lo1":-89.0895,"lo2":-89.0444,"dy":0.0017,"dx":0.0017,"nx":28,"ny":28,"refTime":"2024-03-25T03:00:00:Z","depth":"2","parameterNumber":3,"parameterNumberName":"V-component_of_CURRENTS"},"data":[0,0,0,0,0,0,0,0,0,0,0,0,0,0,0,0,0,0,0,0,0,0,0,0,0,0,0,0,0,0,0,0,0,0,0,0,0,0,0,0,0,0,0,0,0,0,0,0,0,0,0,0,0,0,0,0,0,0,0.0767,0.0766,0,0.0666,0.0665,0.0664,0.0592,0.0592,0.0591,0.059,0.0452,0.0449,0.0446,0,0,0,0,0,0,0,0,0,0,0,0,0,0.0824,0.0824,0.0767,0.0766,0.0764,0.0666,0.0665,0.0664,0.0592,0.0592,0.0591,0.059,0.0453,0.0449,0.0445,0,0,0,0,0,0,0,0,0,0,0,0,0,0.0771,0.0824,0.0767,0.0716,0.071,0.0666,0.0665,0.0663,0.0593,0.0592,0.059,0.0589,0.0454,0.0449,0.0445,0.0439,0,0,0.0431,0.0429,0,0,0,0,0,0,0,0,0.0774,0.0769,0.0725,0.0719,0.0713,0.0639,0.0634,0.0586,0.0593,0.0639,0.059,0.0589,0.051,0.0501,0.0488,0.0432,0.0426,0.0431,0.0428,0.0426,0.0425,0,0,0,0,0,0,0,0.0778,0.0772,0.0729,0.0723,0.0716,0.0672,0.0664,0.0624,0.0583,0.0635,0.0629,0.0615,0.0507,0.0492,0.0484,0.0424,0.0431,0.0427,0.0424,0.0422,0.0362,0.0363,0,0,0,0,0,0,0.0792,0.0776,0.0732,0.0726,0.0739,0.0672,0.0663,0.0665,0.0584,0.057,0.0616,0.0612,0.05,0.0489,0.0478,0.0487,0.0426,0.0422,0.0419,0.0361,0.0362,0.0363,0,0,0,0,0,0,0.0794,0.079,0.0736,0.0746,0.0736,0.0672,0.0675,0.0664,0.0646,0.057,0.0555,0.061,0.0499,0.0485,0.0462,0.048,0.042,0.0416,0.0359,0.0361,0.0363,0.049,0,0,0,0,0,0,0.0796,0.0792,0.0798,0.0748,0.0736,0.0729,0.0676,0.0662,0.0639,0.0633,0.056,0.0546,0.0497,0.047,0.0458,0.0472,0.0412,0.0358,0.036,0.0362,0.0484,0.0495,0.0505,0,0,0,0,0,0.0799,0.0823,0.0799,0.0793,0.0747,0.073,0.0721,0.0671,0.064,0.0649,0.0602,0.0548,0.0474,0.0468,0.0453,0.0467,0.0357,0.036,0.0362,0.0479,0.0493,0.0505,0,0,0,0,0,0,0.0854,0.0816,0.0789,0.0801,0.0772,0.0717,0.0722,0.068,0.0649,0.0639,0.0566,0.0551,0.0537,0.0487,0.0482,0.0455,0.0404,0.0404,0.0499,0.0511,0.0521,0.0554,0.0408,0,0,0,0,0,0.0869,0.0876,0.083,0.084,0.0834,0.0778,0.0762,0.0724,0.0686,0.0671,0.0626,0.0574,0.0537,0.0513,0.0477,0.0464,0.041,0.0461,0.0472,0.0481,0.0498,0.043,0.0436,0.0371,0.0371,0.0371,0,0,0.0895,0.0872,0.0877,0.0851,0.0829,0.0838,0.0768,0.0754,0.0762,0.0661,0.0672,0.0613,0.0544,0.0535,0.0523,0.0493,0.0474,0.0484,0.0493,0.0505,0.0433,0.0439,0.0445,0.0373,0.0373,0.0373,0,0,0.0953,0.0935,0.096,0.0946,0.091,0.0882,0.0882,0.0837,0.0824,0.0815,0.0747,0.0711,0.0656,0.0616,0.0584,0.0631,0.0537,0.0604,0.0678,0.0612,0.0617,0.062,0.0572,0.057,0.0604,0.0604,0.0604,0,0.0984,0.1006,0.0966,0.0984,0.0989,0.0912,0.0946,0.0924,0.0875,0.087,0.0839,0.0765,0.0702,0.0684,0.0694,0.0657,0.0601,0.0637,0.0626,0.0628,0.063,0.0579,0.0576,0.0611,0.061,0.0609,0.0609,0,0.1055,0.1073,0.1095,0.1098,0.11,0.1116,0.1083,0.1075,0.1042,0.1006,0.0991,0.0916,0.0861,0.0836,0.0775,0.0754,0.0706,0.0653,0.0597,0.0644,0.0588,0.0582,0.062,0.0617,0.0615,0.0614,0,0,0.1128,0.1144,0.1152,0.1175,0.1163,0.1172,0.1197,0.1194,0.1202,0.1154,0.117,0.11,0.1032,0.0993,0.091,0.0854,0.081,0.0758,0.0751,0.0718,0.0666,0.0625,0.0613,0.0739,0.0738,0.0738,0.0627,0,0.1199,0.1265,0.1256,0.1326,0.1362,0.1321,0.1359,0.1336,0.1304,0.1298,0.1217,0.1192,0.11,0.1064,0.0997,0.085,0.0797,0.0846,0.0619,0.0613,0.0576,0.0606,0.0571,0.0468,0.062,0.0619,0.0618,0,0.1268,0.1305,0.1392,0.1441,0.1459,0.1486,0.1516,0.1538,0.1496,0.1468,0.1415,0.133,0.1248,0.1163,0.0965,0.099,0.0845,0.0739,0.073,0.0645,0.0561,0.0442,0.045,0.0607,0.0608,0.0609,0.061,0,0.1328,0.1399,0.1477,0.1493,0.1537,0.1571,0.1596,0.1583,0.1607,0.1565,0.1548,0.1442,0.1374,0.1201,0.0972,0.0948,0.0758,0.0689,0.0533,0.0529,0.0435,0.0423,0.0565,0.0565,0.0565,0.0565,0.0566,0,0.1399,0.1456,0.1509,0.1544,0.1638,0.165,0.1726,0.172,0.1726,0.1756,0.1635,0.1627,0.137,0.1222,0.1019,0.0767,0.0784,0.0561,0.0499,0.0479,0.0474,0.0537,0.0536,0.0561,0.0562,0.0563,0.0564,0,0.1435,0.1477,0.1555,0.1627,0.1662,0.1723,0.1804,0.1841,0.1839,0.187,0.1857,0.1735,0.1541,0.1296,0.1011,0.0818,0.0595,0.0504,0.0514,0.0455,0.0397,0.0404,0.0307,0.0305,0.0303,0.0301,0.03,0,0.1451,0.1496,0.1602,0.1658,0.1692,0.1786,0.1846,0.1888,0.1931,0.1947,0.1965,0.1805,0.17,0.1293,0.0928,0.0579,0.057,0.0327,0.0276,0.0423,0.0371,0.0381,0.0389,0.02,0.0198,0.0196,0.0195,0,0.1458,0.1496,0.1558,0.167,0.175,0.1861,0.1952,0.2017,0.2072,0.2099,0.2106,0.2037,0.1645,0.1256,0.0793,0.0568,0.0378,0.028,0.0414,0.0282,0.0315,0.0267,0.028,0.018,0.0181,0.0182,0.0183,0.0184,0.1439,0.1484,0.1555,0.1665,0.1767,0.1903,0.1978,0.2084,0.2182,0.2195,0.2176,0.202,0.1651,0.0986,0.0625,0.0229,0.0272,0.0104,0.0112,0.0121,0.0139,0.0168,0.0009,0.001,0.001,0.0011,0.0011,0,0.1386,0.1454,0.1545,0.167,0.176,0.1835,0.201,0.2064,0.2172,0.2182,0.2142,0.1729,0.1336,0.0932,0.031,-0.0016,-0.003,-0.0114,-0.0074,-0.0057,-0.0042,-0.003,-0.0207,-0.0208,-0.0209,-0.021,0,0,0.1359,0.1418,0.1477,0.1607,0.1701,0.1813,0.1908,0.2011,0.2051,0.2035,0.1924,0.1786,0.1359,0.0867,0.0438,0.0092,0.0092,0.0031,0.0234,0.0346,0.0364,0.0108,0.0149,0,0,0,0,0]}],[{"header":{"parameterUnit":"m.s-1","parameterCategory":2,"la1":30.2991,"la2":30.254,"lo1":-89.0895,"lo2":-89.0444,"dy":0.0017,"dx":0.0017,"nx":28,"ny":28,"refTime":"2024-03-25T03:00:00:Z","depth":"4","parameterNumber":2,"parameterNumberName":"U-component_of_CURRENTS"},"data":[0,0,0,0,0,0,0,0,0,0,0,0,0,0,0,0,0,0,0,0,0,0,0,0,0,0,0,0,0,0,0,0,0,0,0,0,0,0,0,0,0,0,0,0,0,0,0,0,0,0,0,0,0,0,0,0,0,0,0.1236,0.1237,0,0.1298,0.1299,0.1299,0.1328,0.1328,0.1329,0.1329,0.14,0.1402,0.1404,0,0,0,0,0,0,0,0,0,0,0,0,0,0.1156,0.1157,0.1236,0.1237,0.1238,0.1298,0.1299,0.1299,0.1328,0.1328,0.1329,0.1329,0.14,0.1402,0.1404,0,0,0,0,0,0,0,0,0,0,0,0,0,0.1199,0.1157,0.1236,0.1261,0.1265,0.1298,0.1299,0.13,0.1328,0.1329,0.1329,0.1329,0.1399,0.1401,0.1404,0.1415,0,0,0.1412,0.1413,0,0,0,0,0,0,0,0,0.1197,0.1202,0.1257,0.126,0.1263,0.1308,0.1297,0.1339,0.1328,0.1302,0.1329,0.1329,0.1371,0.1376,0.1384,0.1418,0.1421,0.1412,0.1414,0.1415,0.1416,0,0,0,0,0,0,0,0.1193,0.1199,0.1258,0.1258,0.1262,0.1274,0.128,0.1305,0.1333,0.1304,0.1307,0.1317,0.1373,0.1381,0.1386,0.1422,0.1412,0.1414,0.1416,0.1417,0.1539,0.1541,0,0,0,0,0,0,0.119,0.1196,0.1256,0.126,0.1232,0.1276,0.1282,0.1291,0.1332,0.1339,0.1317,0.1318,0.1377,0.1383,0.1389,0.1474,0.1415,0.1417,0.1419,0.1538,0.154,0.1542,0,0,0,0,0,0,0.1188,0.1194,0.1254,0.1232,0.1241,0.1277,0.1287,0.1293,0.1327,0.1343,0.1349,0.1349,0.1377,0.1385,0.1421,0.1474,0.1419,0.1421,0.1536,0.1538,0.1541,0.16,0,0,0,0,0,0,0.1185,0.1193,0.1212,0.1231,0.1242,0.1286,0.1287,0.1294,0.1333,0.1336,0.1372,0.1377,0.1378,0.1417,0.1423,0.1477,0.1423,0.1534,0.1537,0.154,0.1596,0.1605,0.1612,0,0,0,0,0,0.1182,0.12,0.1212,0.1221,0.1262,0.1287,0.1293,0.1318,0.1334,0.135,0.137,0.1377,0.1442,0.1419,0.1427,0.1483,0.1532,0.1536,0.154,0.1593,0.1603,0.1612,0,0,0,0,0,0,0.1178,0.1205,0.1219,0.1247,0.1272,0.1293,0.1317,0.1335,0.1365,0.1379,0.1388,0.1395,0.1453,0.1454,0.1429,0.1527,0.1493,0.1499,0.1532,0.1541,0.1549,0.1544,0.1425,0,0,0,0,0,0.1185,0.1205,0.1232,0.1256,0.1273,0.1302,0.1323,0.1342,0.1365,0.1381,0.1406,0.1437,0.1471,0.1493,0.1518,0.1565,0.157,0.1609,0.1617,0.1623,0.1624,0.1682,0.1695,0.1554,0.1554,0.1554,0,0,0.1193,0.121,0.1224,0.1257,0.1282,0.1311,0.1315,0.1355,0.1388,0.1384,0.1443,0.1467,0.1489,0.1542,0.1569,0.1552,0.1665,0.1628,0.1633,0.1631,0.1687,0.1701,0.1713,0.1557,0.1556,0.1556,0,0,0.1202,0.1232,0.1249,0.1274,0.1316,0.1337,0.1355,0.1395,0.1424,0.147,0.1488,0.1534,0.1581,0.1609,0.1627,0.1693,0.1704,0.1718,0.1756,0.1813,0.1825,0.1835,0.1852,0.1863,0.1722,0.1722,0.1722,0,0.1211,0.1236,0.1259,0.1283,0.1312,0.1352,0.1382,0.1418,0.1467,0.1499,0.1496,0.1596,0.1611,0.1688,0.1707,0.1713,0.1734,0.1718,0.1823,0.1834,0.1844,0.1858,0.187,0.1726,0.1725,0.1725,0.1725,0,0.1227,0.126,0.1276,0.1319,0.135,0.1387,0.1435,0.1484,0.1526,0.156,0.1648,0.1673,0.1736,0.1755,0.1746,0.1841,0.1829,0.1827,0.1798,0.1862,0.1872,0.1883,0.173,0.1729,0.1728,0.1727,0,0,0.1212,0.1274,0.1284,0.1312,0.1376,0.1403,0.1471,0.1537,0.1599,0.1655,0.173,0.1789,0.1826,0.1848,0.1872,0.1908,0.1985,0.19,0.1901,0.1912,0.2095,0.1965,0.1964,0.2014,0.2016,0.2018,0.207,0,0.1221,0.1267,0.1299,0.136,0.1391,0.1452,0.1509,0.1579,0.1647,0.1731,0.1787,0.1869,0.186,0.1909,0.1951,0.1984,0.2021,0.197,0.2034,0.2035,0.191,0.1975,0.2027,0.2079,0.2081,0.2083,0.2084,0,0.1225,0.1257,0.1312,0.1386,0.1408,0.1456,0.1567,0.1627,0.1747,0.1803,0.19,0.1951,0.204,0.2016,0.2111,0.2087,0.2098,0.2103,0.2106,0.197,0.1926,0.2005,0.2105,0.2103,0.2102,0.21,0.2099,0,0.1195,0.1266,0.1313,0.1339,0.143,0.148,0.1542,0.1656,0.172,0.1872,0.1935,0.2048,0.2117,0.2165,0.2186,0.217,0.226,0.2241,0.2131,0.2121,0.2194,0.2182,0.2304,0.2304,0.2304,0.2304,0.2304,0,0.118,0.1222,0.1311,0.1337,0.1406,0.1478,0.1573,0.1659,0.1783,0.186,0.1985,0.2055,0.2161,0.2221,0.2226,0.2209,0.2305,0.2143,0.2135,0.2216,0.2206,0.2201,0.2189,0.2306,0.2305,0.2305,0.2305,0,0.1136,0.1196,0.1253,0.1355,0.1393,0.1448,0.1573,0.1633,0.1775,0.1884,0.1937,0.2085,0.2163,0.2231,0.2301,0.2246,0.2249,0.2217,0.2287,0.2281,0.2058,0.2049,0.2102,0.2098,0.2095,0.2092,0.209,0,0.1114,0.1141,0.1252,0.1283,0.1334,0.1424,0.1476,0.1618,0.1679,0.1874,0.1906,0.2045,0.2124,0.2115,0.2198,0.2214,0.2187,0.2175,0.2119,0.2056,0.2044,0.2039,0.2034,0.2084,0.2084,0.2083,0.2082,0,0.1067,0.1119,0.1165,0.1229,0.1289,0.1334,0.1425,0.1459,0.1619,0.1767,0.1837,0.1896,0.1976,0.2028,0.206,0.2064,0.2179,0.2139,0.2146,0.2093,0.2035,0.2025,0.2024,0.207,0.2072,0.2073,0.2074,0,0.1036,0.1054,0.1117,0.1168,0.122,0.122,0.128,0.1344,0.1423,0.1642,0.1657,0.1807,0.1941,0.195,0.1977,0.198,0.1951,0.1887,0.1905,0.1919,0.1838,0.1736,0.168,0,0,0,0,0,0.1004,0.1016,0.1045,0.1084,0.1118,0.1158,0.123,0.1292,0.1457,0.1461,0.1557,0.1625,0.1696,0.1772,0.1739,0.1895,0.1951,0.185,0.1884,0.2006,0.2019,0.1942,0,0,0,0,0,0,0.098,0.1013,0.1022,0.0993,0.1009,0.1034,0.1078,0.1178,0.1186,0.1363,0.14,0.1549,0.1628,0.1709,0.1722,0.1745,0.1735,0.1951,0.1947,0.1998,0.201,0.2021,0.1947,0,0,0,0,0]},{"header":{"parameterUnit":"m.s-1","parameterCategory":2,"la1":30.2991,"la2":30.254,"lo1":-89.0895,"lo2":-89.0444,"dy":0.0017,"dx":0.0017,"nx":28,"ny":28,"refTime":"2024-03-25T03:00:00:Z","depth":"4","parameterNumber":3,"parameterNumberName":"V-component_of_CURRENTS"},"data":[0,0,0,0,0,0,0,0,0,0,0,0,0,0,0,0,0,0,0,0,0,0,0,0,0,0,0,0,0,0,0,0,0,0,0,0,0,0,0,0,0,0,0,0,0,0,0,0,0,0,0,0,0,0,0,0,0,0,0.0556,0.0556,0,0.0527,0.0527,0.0527,0.0503,0.0502,0.0502,0.0501,0.0459,0.0458,0.0457,0,0,0,0,0,0,0,0,0,0,0,0,0,0.0569,0.0569,0.0556,0.0556,0.0555,0.0527,0.0527,0.0527,0.0503,0.0502,0.0502,0.0501,0.0459,0.0458,0.0457,0,0,0,0,0,0,0,0,0,0,0,0,0,0.0555,0.0569,0.0557,0.0539,0.0537,0.0528,0.0527,0.0527,0.0503,0.0502,0.0502,0.0501,0.0459,0.0458,0.0457,0.0461,0,0,0.0453,0.0453,0,0,0,0,0,0,0,0,0.0556,0.0555,0.0542,0.054,0.0538,0.0517,0.0516,0.0504,0.0503,0.0517,0.0501,0.0501,0.0476,0.0474,0.0472,0.0459,0.0457,0.0453,0.0452,0.0452,0.0452,0,0,0,0,0,0,0,0.0557,0.0556,0.0546,0.0542,0.0539,0.0525,0.0523,0.0513,0.0501,0.0516,0.0514,0.0509,0.0475,0.0473,0.047,0.0456,0.0453,0.0452,0.0451,0.0451,0.0452,0.0452,0,0,0,0,0,0,0.056,0.0557,0.0547,0.0545,0.0544,0.0525,0.0523,0.0525,0.0501,0.0497,0.0509,0.0508,0.0475,0.0472,0.0469,0.049,0.0452,0.0451,0.045,0.0451,0.0452,0.0453,0,0,0,0,0,0,0.056,0.056,0.0548,0.0549,0.0546,0.0526,0.0529,0.0525,0.0531,0.0496,0.0492,0.052,0.0475,0.047,0.0474,0.0487,0.045,0.0449,0.045,0.0451,0.0452,0.0521,0,0,0,0,0,0,0.0561,0.056,0.0571,0.0549,0.0546,0.0555,0.0529,0.0525,0.0527,0.0526,0.0504,0.0498,0.0474,0.0476,0.0472,0.0485,0.0448,0.0449,0.0451,0.0452,0.0518,0.0524,0.053,0,0,0,0,0,0.0562,0.0581,0.0572,0.0571,0.0559,0.0555,0.0553,0.0537,0.0529,0.0539,0.0525,0.05,0.0481,0.0476,0.0472,0.0484,0.0449,0.045,0.0452,0.0515,0.0523,0.053,0,0,0,0,0,0,0.0592,0.0579,0.0569,0.0583,0.0574,0.0551,0.0562,0.0548,0.0546,0.0549,0.0514,0.0509,0.0512,0.0493,0.0487,0.0488,0.0459,0.046,0.0508,0.0515,0.0521,0.0525,0.0447,0,0,0,0,0,0.0604,0.0616,0.0595,0.0608,0.0608,0.0588,0.0587,0.0576,0.0566,0.0565,0.0546,0.0529,0.0515,0.0512,0.0496,0.0505,0.0461,0.0508,0.0514,0.0519,0.0519,0.0463,0.0463,0.0458,0.0458,0.0458,0,0,0.0622,0.0614,0.0623,0.0616,0.061,0.0618,0.0588,0.0596,0.0602,0.0561,0.0573,0.055,0.0522,0.0526,0.0526,0.0513,0.05,0.0521,0.0526,0.0523,0.0465,0.0465,0.0465,0.0459,0.0459,0.0459,0,0,0.0658,0.0657,0.0677,0.0672,0.0665,0.0654,0.066,0.0645,0.0642,0.0649,0.0616,0.0602,0.0592,0.0567,0.0554,0.0584,0.0531,0.0584,0.0622,0.0568,0.0567,0.0566,0.0517,0.0512,0.059,0.0591,0.0591,0,0.0682,0.0697,0.0683,0.0694,0.0699,0.0674,0.0695,0.0688,0.0675,0.0672,0.0663,0.0632,0.0607,0.0597,0.0608,0.0597,0.0561,0.0598,0.0575,0.0573,0.057,0.052,0.0513,0.0594,0.0594,0.0593,0.0593,0,0.072,0.0738,0.0752,0.0759,0.0763,0.078,0.0764,0.077,0.0762,0.0742,0.0735,0.07,0.0679,0.0669,0.0651,0.0631,0.0608,0.0586,0.0556,0.0575,0.0521,0.0512,0.0599,0.0598,0.0597,0.0596,0,0,0.0761,0.0778,0.0785,0.08,0.0801,0.081,0.0826,0.0826,0.0836,0.0812,0.0814,0.0783,0.0756,0.074,0.0708,0.0664,0.062,0.063,0.0625,0.0581,0.0504,0.0476,0.0463,0.0595,0.0593,0.0592,0.0475,0,0.0798,0.084,0.0837,0.0881,0.0901,0.0889,0.0907,0.0901,0.089,0.0884,0.0833,0.0826,0.0786,0.0785,0.0733,0.0647,0.0599,0.0654,0.0492,0.0487,0.0459,0.0453,0.0589,0.0468,0.0466,0.0464,0.0463,0,0.0832,0.0856,0.0911,0.0942,0.0952,0.098,0.1004,0.1016,0.0992,0.0981,0.0951,0.0906,0.0849,0.0814,0.0667,0.0706,0.0615,0.0541,0.0534,0.0476,0.0443,0.0441,0.0446,0.0447,0.0449,0.045,0.0451,0,0.086,0.0905,0.0957,0.0967,0.0999,0.1032,0.1055,0.1052,0.1073,0.1048,0.1051,0.0963,0.0932,0.0804,0.0654,0.0661,0.0478,0.0464,0.035,0.0347,0.0377,0.0379,0.0354,0.0354,0.0355,0.0355,0.0355,0,0.0886,0.0926,0.0983,0.1009,0.1077,0.1085,0.1151,0.1152,0.1165,0.1186,0.1114,0.1098,0.0928,0.0806,0.0664,0.0476,0.048,0.0349,0.0311,0.041,0.0417,0.037,0.0374,0.035,0.0351,0.0352,0.0353,0,0.0898,0.0935,0.0997,0.1063,0.1094,0.1146,0.123,0.1266,0.1273,0.1298,0.1297,0.1192,0.1031,0.0845,0.0622,0.0496,0.0315,0.0248,0.0369,0.0341,0.0218,0.0227,0.011,0.0108,0.0106,0.0105,0.0103,0,0.0897,0.0936,0.1043,0.109,0.1129,0.1215,0.1274,0.1321,0.1356,0.1349,0.1353,0.1223,0.1127,0.0785,0.0592,0.0304,0.0266,0.0168,0.019,0.0216,0.0191,0.0203,0.0213,0.0101,0.01,0.01,0.0099,0,0.0892,0.0949,0.1003,0.1111,0.1196,0.1286,0.1372,0.1407,0.1448,0.1461,0.1378,0.1213,0.1025,0.0771,0.0545,0.0344,0.0226,0.0149,0.0151,0.0172,0.0204,0.0183,0.0196,0.0093,0.0094,0.0095,0.0095,0,0.0888,0.093,0.1018,0.1106,0.1217,0.1312,0.1371,0.1406,0.1446,0.1435,0.1402,0.1212,0.1105,0.0791,0.0585,0.0379,0.033,0.0257,0.0253,0.0258,0.0335,0.0399,0.031,0,0,0,0,0,0.0865,0.091,0.0996,0.1097,0.1212,0.1282,0.1404,0.1453,0.1502,0.1443,0.1423,0.1246,0.0936,0.0806,0.0593,0.0555,0.0298,0.0298,0.0213,0.006,0.0067,0.013,0,0,0,0,0,0,0.0844,0.0923,0.0976,0.1075,0.114,0.1271,0.1357,0.1402,0.1369,0.1381,0.1218,0.1161,0.0863,0.1037,0.0569,0.0513,0.0425,0.0165,0.016,0.0056,0.0062,0.0068,0.0135,0,0,0,0,0]}]]